FW4270 Weather Reports


time (UTC)temp
C
wind
direction
speed
KPH
gust
KPH
rain 1hr
cm
rain 24hr
cm
rain mn
cm
humidity
%
barometer
mb
20260504202723 21 72 0.0 0.0 0.00 0.00 0.00 62 1011.9
20260504202218 21 72 0.0 0.0 0.00 0.00 0.00 61 1012.0
20260504201719 21 72 1.6 4.8 0.00 0.00 0.00 60 1011.9
20260504201217 21 72 1.6 8.0 0.00 0.00 0.00 60 1011.9
20260504200715 21 71 1.6 8.0 0.00 0.00 0.00 59 1011.9
20260504200215 21 73 0.0 4.8 0.00 0.00 0.00 59 1011.9
20260504195715 20 73 1.6 6.4 0.00 0.00 0.00 59 1012.0
20260504195215 20 73 1.6 6.4 0.00 0.00 0.00 60 1011.9
20260504194714 20 56 1.6 6.4 0.00 0.00 0.00 62 1011.9
20260504194215 20 36 0.0 0.0 0.00 0.00 0.00 64 1011.8
20260504193714 21 35 0.0 0.0 0.00 0.00 0.00 65 1011.8
20260504193213 21 35 0.0 0.0 0.00 0.00 0.00 65 1011.7
20260504192713 21 35 0.0 0.0 0.00 0.00 0.00 65 1011.7
20260504192216 21 35 0.0 0.0 0.00 0.00 0.00 65 1011.7
20260504191713 21 35 0.0 0.0 0.00 0.00 0.00 65 1011.7
20260504191214 21 35 0.0 0.0 0.00 0.00 0.00 66 1011.6
20260504190715 21 35 0.0 0.0 0.00 0.00 0.00 65 1011.6
20260504190212 21 35 0.0 0.0 0.00 0.00 0.00 65 1011.5
20260504185715 21 35 0.0 0.0 0.00 0.00 0.00 65 1011.4
20260504185209 21 35 0.0 0.0 0.00 0.00 0.00 65 1011.3
20260504184704 21 30 0.0 0.0 0.00 0.00 0.00 65 1011.3
20260504184159 21 30 0.0 0.0 0.00 0.00 0.00 65 1011.1
20260504183652 21 30 0.0 0.0 0.00 0.00 0.00 64 1011.1
20260504183145 21 30 0.0 0.0 0.00 0.00 0.00 64 1011.1
20260504182639 21 30 1.6 4.8 0.00 0.00 0.00 64 1011.0
20260504182133 21 23 3.2 6.4 0.00 0.00 0.00 64 1010.8
20260504181627 21 23 3.2 6.4 0.00 0.00 0.00 64 1010.6
20260504181127 21 333 1.6 6.4 0.00 0.00 0.00 63 1010.6
20260504180627 21 95 1.6 4.8 0.00 0.00 0.00 61 1010.6
20260504180123 21 101 1.6 4.8 0.00 0.00 0.00 60 1010.7
20260504175623 21 101 3.2 4.8 0.00 0.00 0.00 59 1010.6
20260504175125 21 101 1.6 4.8 0.00 0.00 0.00 59 1010.7
20260504174623 21 111 0.0 4.8 0.00 0.00 0.00 59 1010.9
20260504174353 21 155 0.0 3.2 0.00 0.00 0.00 60 1010.9
20260504173847 21 155 1.6 4.8 0.00 0.00 0.00 60 1010.9
20260504173125 21 155 1.6 4.8 0.00 0.00 0.00 60 1010.9
20260504172853 21 162 0.0 0.0 0.00 0.00 0.00 60 1010.9
20260504172123 21 163 0.0 0.0 0.00 0.00 0.00 59 1010.9
20260504171844 21 163 0.0 0.0 0.00 0.00 0.00 59 1010.9
20260504171121 21 163 0.0 0.0 0.00 0.00 0.00 59 1010.9
20260504170621 21 162 0.0 0.0 0.00 0.00 0.00 59 1011.0
20260504170117 21 163 0.0 0.0 0.00 0.00 0.00 60 1011.1
20260504160109 22 163 0.0 0.0 0.00 0.00 0.00 57 1011.0
20260504151103 22 181 8.0 14.5 0.00 0.00 0.00 56 1010.4
20260504150605 22 144 8.0 16.1 0.00 0.00 0.00 56 1010.5
20260504150105 22 196 8.0 16.1 0.00 0.00 0.00 56 1010.5
20260504141104 24 162 6.4 14.5 0.00 0.00 0.00 51 1009.4
20260504140602 24 157 8.0 19.3 0.00 0.00 0.00 51 1009.3
20260504130545 25 89 11.3 22.5 0.00 0.00 0.00 51 1009.5
20260504110444 27 92 9.7 20.9 0.00 0.00 0.00 47 1009.1
20260504100329 26 94 9.7 24.1 0.00 0.00 0.00 55 1010.0
20260504081622 28 58 3.2 9.7 0.00 0.00 0.00 52 1009.0
20260504081121 28 44 3.2 8.0 0.00 0.00 0.00 53 1009.1
20260504080611 27 45 4.8 12.9 0.00 0.00 0.00 54 1009.3
20260504080350 27 333 4.8 12.9 0.00 0.00 0.00 54 1009.5
20260504060249 27 30 4.8 11.3 0.00 0.00 0.00 48 1010.7
20260504050522 27 236 6.4 12.9 0.00 0.00 0.00 51 1010.4
20260504050022 27 179 6.4 11.3 0.00 0.00 0.00 50 1010.2
20260504045523 27 198 6.4 11.3 0.00 0.00 0.00 49 1010.2
20260504045250 27 210 6.4 14.5 0.00 0.00 0.00 50 1010.1
20260504044524 27 194 8.0 16.1 0.00 0.00 0.00 51 1010.1
20260504044020 27 186 8.0 16.1 0.00 0.00 0.00 53 1010.1
20260504043520 27 228 9.7 17.7 0.00 0.00 0.00 53 1010.2
20260504043020 27 187 11.3 17.7 0.00 0.00 0.00 54 1010.2
20260504042517 27 188 11.3 24.1 0.00 0.00 0.00 56 1010.1
20260504042020 27 184 11.3 24.1 0.00 0.00 0.00 56 1010.0
20260504041520 27 180 11.3 20.9 0.00 0.00 0.00 57 1010.0
20260504041019 27 182 9.7 22.5 0.00 0.00 0.00 56 1009.9
20260504040520 27 181 9.7 22.5 0.00 0.00 0.00 57 1009.8
20260504040020 27 174 9.7 20.9 0.00 0.00 0.00 56 1009.7
20260504035516 26 190 8.0 16.1 0.00 0.00 0.00 58 1009.6
20260504035016 26 182 6.4 14.5 0.00 0.00 0.00 58 1009.6
20260504034516 26 161 6.4 12.9 0.00 0.00 0.00 58 1009.4
20260504034016 26 151 4.8 11.3 0.00 0.00 0.00 57 1009.3
20260504033518 26 116 6.4 14.5 0.00 0.00 0.00 56 1009.3
20260504033016 26 155 6.4 14.5 0.00 0.00 0.00 56 1009.2
20260504032516 26 121 4.8 12.9 0.00 0.00 0.00 57 1009.1
20260504032014 26 122 3.2 9.7 0.00 0.00 0.00 56 1009.0
20260504031514 26 248 1.6 6.4 0.00 0.00 0.00 57 1008.8
20260504031010 26 250 1.6 6.4 0.00 0.00 0.00 57 1008.8
20260504030509 26 250 1.6 4.8 0.00 0.00 0.00 57 1008.7
20260504030010 26 250 1.6 4.8 0.00 0.00 0.00 58 1008.5
20260504025509 26 251 1.6 4.8 0.00 0.00 0.00 58 1008.5
20260504025003 26 250 1.6 4.8 0.00 0.00 0.00 58 1008.6
20260504024502 26 251 1.6 4.8 0.00 0.00 0.00 60 1008.4
20260504024002 25 251 1.6 4.8 0.00 0.00 0.00 61 1008.2
20260504023504 25 252 1.6 4.8 0.00 0.00 0.00 61 1008.2
20260504022959 25 252 3.2 4.8 0.00 0.00 0.00 63 1008.1
20260504022500 25 252 3.2 6.4 0.00 0.00 0.00 63 1008.0
20260504022002 25 252 1.6 6.4 0.00 0.00 0.00 64 1007.9
20260504021500 25 322 1.6 3.2 0.00 0.00 0.00 64 1007.9
20260504020958 24 321 0.0 3.2 0.00 0.00 0.00 65 1007.9
20260504020458 24 321 0.0 0.0 0.00 0.00 0.00 68 1007.8
20260504015958 24 321 0.0 0.0 0.00 0.00 0.00 69 1007.8
20260504015459 23 321 0.0 0.0 0.00 0.00 0.00 69 1007.7
20260504014959 23 321 0.0 0.0 0.00 0.00 0.00 70 1007.6
20260504014456 23 321 0.0 0.0 0.00 0.00 0.00 71 1007.6
20260504013956 23 321 0.0 0.0 0.00 0.00 0.00 72 1007.5
20260504013501 22 321 0.0 0.0 0.00 0.00 0.00 72 1007.5
20260504012954 22 321 0.0 0.0 0.00 0.00 0.00 72 1007.4
20260504012447 22 321 0.0 0.0 0.00 0.00 0.00 72 1007.4
20260504011941 22 321 0.0 0.0 0.00 0.00 0.00 72 1007.8
20260504011434 22 321 0.0 3.2 0.00 0.00 0.00 72 1007.4
20260504010929 22 321 1.6 6.4 0.00 0.00 0.00 72 1007.3
20260504010423 22 321 3.2 6.4 0.00 0.00 0.00 73 1007.3
20260504005917 22 321 3.2 6.4 0.00 0.00 0.00 73 1007.3
20260504005630 22 322 3.2 4.8 0.00 0.00 0.00 73 1007.3
20260504004905 22 323 1.6 4.8 0.00 0.00 0.00 74 1007.1
20260504004359 22 344 0.0 0.0 0.00 0.00 0.00 74 1007.0
20260504003853 22 344 0.0 0.0 0.00 0.00 0.00 74 1006.9
20260504003348 22 344 0.0 0.0 0.00 0.00 0.00 73 1006.9
20260504002841 22 344 0.0 0.0 0.00 0.00 0.00 73 1006.9
20260504002335 22 344 0.0 0.0 0.00 0.00 0.00 73 1006.9
20260504001829 22 344 0.0 0.0 0.00 0.00 0.00 73 1006.8
20260504001324 22 344 0.0 1.6 0.00 0.00 0.00 72 1006.8
20260504000817 22 344 0.0 1.6 0.00 0.00 0.00 72 1006.8
20260504000312 22 344 0.0 1.6 0.00 0.00 0.00 72 1006.7
20260503235805 22 344 0.0 4.8 0.00 0.00 0.00 72 1006.7
20260503235527 22 344 0.0 4.8 0.00 0.00 0.00 72 1006.6
20260503235019 22 345 0.0 3.2 0.00 0.00 0.00 71 1006.7
20260503234247 22 0 0.0 0.0 0.00 0.00 0.00 71 1006.6
20260503233741 22 0 0.0 0.0 0.00 0.00 0.00 72 1006.7
20260503233503 22 0 0.0 0.0 0.00 0.00 0.00 72 1006.5
20260503232729 22 0 0.0 0.0 0.00 0.00 0.00 72 1006.6
20260503232223 22 14 0.0 0.0 0.00 0.00 0.00 72 1006.7
20260503231211 22 14 0.0 0.0 0.00 0.00 0.00 72 1006.6
20260503230705 22 14 0.0 0.0 0.00 0.00 0.00 72 1006.6
20260503230159 22 14 0.0 0.0 0.00 0.00 0.00 73 1006.6
20260503225653 22 14 0.0 0.0 0.00 0.00 0.00 73 1006.5
20260503225148 22 14 0.0 0.0 0.00 0.00 0.00 72 1006.4
20260503224641 22 14 0.0 0.0 0.00 0.00 0.00 72 1006.5
20260503224135 22 14 0.0 0.0 0.00 0.00 0.00 71 1006.5
20260503223854 22 14 0.0 0.0 0.00 0.00 0.00 71 1006.5
20260503223125 22 14 0.0 0.0 0.00 0.00 0.00 71 1006.5
20260503222849 22 14 0.0 0.0 0.00 0.00 0.00 70 1006.5
20260503222340 23 14 0.0 0.0 0.00 0.00 0.00 70 1006.4
20260503221120 23 14 0.0 0.0 0.00 0.00 0.00 67 1006.5
20260503220619 23 14 0.0 0.0 0.00 0.00 0.00 68 1006.5
20260503220117 23 14 0.0 0.0 0.00 0.00 0.00 68 1006.6
20260503215614 23 14 0.0 0.0 0.00 0.00 0.00 67 1006.8
20260503215115 23 14 0.0 0.0 0.00 0.00 0.00 67 1006.8
20260503214615 23 14 0.0 0.0 0.00 0.00 0.00 66 1006.9
20260503214113 23 14 0.0 0.0 0.00 0.00 0.00 66 1006.8
20260503213827 23 14 0.0 0.0 0.00 0.03 0.00 66 1006.9
20260503213113 23 14 0.0 0.0 0.00 0.05 0.00 66 1006.9
20260503212609 23 14 0.0 3.2 0.00 0.05 0.00 66 1006.8
20260503212109 23 14 0.0 3.2 0.00 0.08 0.00 66 1006.8
20260503211611 23 14 1.6 3.2 0.00 0.13 0.00 66 1006.9
20260503211110 23 14 1.6 4.8 0.00 0.18 0.00 66 1006.9
20260503210609 23 14 0.0 4.8 0.00 0.23 0.00 66 1006.8
20260503210110 23 14 0.0 0.0 0.00 0.28 0.00 67 1006.8
20260503205611 23 14 0.0 0.0 0.00 0.33 0.00 67 1006.8
20260503205111 23 14 0.0 1.6 0.00 0.38 0.00 66 1006.9
20260503204613 23 14 0.0 1.6 0.00 0.43 0.00 66 1006.9
20260503204111 23 14 0.0 1.6 0.00 0.48 0.00 67 1006.9
20260503203609 23 14 0.0 1.6 0.00 0.51 0.00 67 1006.8
20260503203333 23 14 0.0 1.6 0.00 0.51 0.00 66 1007.0